Hors Challenge

Le Lampiris Averbode Nature Trail à Averbode (8.00 km)

samedi 06 octobre 2018

Le Classement original se trouve sur : http://www.chronorace.be
 
LE LAMPIRIS AVERBODE NATURE TRAIL
DISTANCE : 7.98 km
samedi 06 octobre 2018
 
Place Dos NOM Catégorie Pl/cat temps temps/km Vitesse
1 538 EECKHOUT JONATHAN SH 1 0:31:03 03:53 15.42
2 636 VAN DYCK LANDER JH 1 0:32:30 04:04 14.73
3 620 PLAS GERRIT SH 2 0:32:32 04:05 14.72
4 588 VAN DER HOEVEN JEANNINE MARIA A2 1 0:34:39 04:21 13.82
5 559 GEUDENS PASCAL V1 1 0:34:57 04:23 13.70
6 549 VYNCKE HENDRIK SH 3 0:35:34 04:27 13.46
7 753 ANDRIES MAXIM SH 4 0:36:41 04:36 13.05
8 528 FRANCUS BRIEUC SH 5 0:36:50 04:37 13.00
9 710 DEBRUYN RUTGER SH 6 0:36:50 04:37 13.00
10 782 VANDEWEYER NIELS SH 7 0:37:17 04:40 12.84
11 756 MASALA LORI SH 8 0:37:18 04:40 12.84
12 556 VANDENDRIESSCHE SERGE V1 2 0:37:36 04:43 12.73
13 580 VOLKMER ANDREAS V2 1 0:38:03 04:46 12.58
14 739 DE BAERDEMAEKER KJELL SH 9 0:38:18 04:48 12.50
15 728 TIMMERMANS ROBBE JH 2 0:38:22 04:48 12.48
16 592 EXELMANS .YVES V2 2 0:38:26 04:49 12.46
17 578 NIJS RONNY V1 3 0:38:38 04:50 12.39
18 520 NOTELÉ KRIS V1 4 0:39:56 05:00 11.99
19 500 WOUTERS MATHIEU SH 10 0:39:59 05:01 11.97
20 652 BOOGERS JONAS SH 11 0:40:22 05:04 11.86
21 582 LELOUP OLIVIA JF 1 0:40:26 05:04 11.84
22 553 DE BROECK WILFRIED V3 1 0:40:47 05:07 11.74
23 656 LAMOEN KENNETH SH 12 0:40:52 05:07 11.72
24 517 DE CAT ANNOUCK SD 1 0:40:57 05:08 11.69
25 666 VAN DOREN WOUT SH 13 0:41:03 05:09 11.66
26 607 DE NEF WOUTER SH 14 0:41:21 05:11 11.58
27 746 BENEDEK ILDIKO SD 2 0:41:38 05:13 11.50
28 606 DE NEF WOUTER V2 3 0:41:42 05:14 11.48
29 657 MCKEVITT MAEVE SD 3 0:41:45 05:14 11.47
30 780 COPPERS KOEN JH 3 0:41:46 05:14 11.46
31 602 LE ROY AIMÉ SH 15 0:41:47 05:14 11.46
32 755 VAN HAECHT TOM SH 16 0:41:55 05:15 11.42
33 667 VERRIJSSEN JEROEN SH 17 0:42:02 05:16 11.39
34 705 VERTOMMEN GERT-JAN SH 18 0:42:22 05:19 11.30
35 534 VAN DEN BROECK DORIS SD 4 0:42:24 05:19 11.29
36 591 GROSEMANS ERIK PASCAL V2 4 0:42:34 05:20 11.25
37 777 CEULAERS KIRSTEN SD 5 0:42:48 05:22 11.19
38 720 CORTEN JO SH 19 0:43:04 05:24 11.12
39 733 CORTEN HUGO SH 20 0:43:04 05:24 11.12
40 641 LAUWERIER ANDY SH 21 0:43:07 05:24 11.10
41 738 DEREKX TOM SH 22 0:43:12 05:25 11.08
42 794 LENAERT ROBBY SH 23 0:43:21 05:26 11.04
43 692 DE GRAEF HERMAN V2 5 0:43:22 05:26 11.04
44 533 HOUBEN STAN SH 24 0:43:28 05:27 11.02
45 560 KELE SANDER SH 25 0:43:28 05:27 11.02
46 561 BECKERS MARLIES SD 6 0:43:29 05:27 11.01
47 655 VANDERVENNET DEBORA SD 7 0:43:36 05:28 10.98
48 562 MULLENS TOM SH 26 0:43:37 05:28 10.98
49 654 LEMMENS BART V1 5 0:43:37 05:28 10.98
50 673 HARINGS BRENT SH 27 0:43:40 05:28 10.96
51 688 REEMERS LUDO EMIEL V3 2 0:43:53 05:30 10.91
52 643 COOLS GEERTRUI SD 8 0:43:57 05:30 10.89
53 773 HERMANS WIM V2 6 0:43:59 05:31 10.89
54 597 JANSSENS HANNELORE A1 1 0:44:07 05:32 10.85
55 594 JANSSENS WIM V1 6 0:44:09 05:32 10.84
56 645 DE HAES JONI SD 9 0:44:11 05:32 10.84
57 540 LAUWEREYS GERT V1 7 0:44:17 05:33 10.81
58 745 NR 745 XXX   0:44:36 05:35 10.74
59 589 ESTACIO GIGI A1 2 0:44:39 05:36 10.72
60 712 VAN DER AUWERA KIM SD 10 0:44:39 05:36 10.72
61 734 SCHILDER AUKE V1 8 0:44:43 05:36 10.71
62 742 BILLEN MELISSA SD 11 0:44:44 05:36 10.70
63 754 O'DONNELL JOHN V1 9 0:44:51 05:37 10.68
64 660 STEURS TOM SH 28 0:44:52 05:37 10.67
65 686 VEN SVEN SH 29 0:45:10 05:40 10.60
66 611 DRIEZEN DIRK SH 30 0:45:13 05:40 10.59
67 612 DRIEZEN RUBEN JH 4 0:45:15 05:40 10.58
68 747 GUEUNING THOMAS SH 31 0:45:23 05:41 10.55
69 567 CALEMI ALBANO SH 32 0:45:25 05:41 10.54
70 736 BERGMANS HANS V1 10 0:45:27 05:42 10.53
71 583 BERNARD PEGGY A1 3 0:45:52 05:45 10.44
72 658 MERTENS ISABEL A1 4 0:45:56 05:45 10.42
73 697 VAN WIELE EVA SD 12 0:45:59 05:46 10.41
74 613 VANHEERSWYNGHELS KRISTIN A1 5 0:45:59 05:46 10.41
75 653 FAES ANNEMIE SD 13 0:46:04 05:46 10.39
76 778 BAELUS ADRIAAN SH 33 0:46:09 05:47 10.37
77 663 SERRÉ GERTY SD 14 0:46:10 05:47 10.37
78 760 VANDEWEYER ELKE SD 15 0:46:15 05:48 10.35
79 576 PROOST JEAN-PAUL V2 7 0:46:16 05:48 10.35
80 723 DE RAEDT KATRIEN A2 2 0:46:17 05:48 10.34
81 530 JONCKERS KAREN SD 16 0:46:20 05:48 10.33
82 766 DE CNODDER PAUL V2 8 0:46:24 05:49 10.32
83 642 DE BUSSER KRIS V2 9 0:46:31 05:50 10.29
84 718 SCHOOFS ELLEN A1 6 0:46:34 05:50 10.28
85 639 MELLAERTS MOZES JH 5 0:46:35 05:50 10.28
86 713 STAS DIMITRI V1 11 0:46:36 05:50 10.27
87 704 DAENEN EDWIN V1 12 0:46:37 05:51 10.27
88 751 DE SMEDT STEVEN SH 34 0:46:37 05:51 10.27
89 526 WOUTERS DANNY V1 13 0:46:38 05:51 10.27
90 678 BORTELS KEVIN SH 35 0:46:40 05:51 10.26
91 683 KERKHOVE THOMAS SH 36 0:46:45 05:52 10.24
92 737 VLEMINCKX JONAS SH 37 0:46:47 05:52 10.23
93 781 CLAES SHELLA SD 17 0:46:54 05:53 10.21
94 518 PETER MAENHOUT SH 38 0:46:57 05:53 10.20
95 676 VUERINCKX RUUD SH 39 0:47:01 05:54 10.18
96 711 FREDERIK VOS SH 40 0:47:02 05:54 10.18
97 519 DEBRUYN GLENN SH 41 0:47:04 05:54 10.17
98 616 OOMS AN SD 18 0:47:05 05:54 10.17
99 619 RYKEN KOEN SH 42 0:47:07 05:54 10.16
100 618 VANDEN EYNDEN ELKE SD 19 0:47:08 05:54 10.16
101 603 DE MEURICHY DIDIER SH 43 0:47:14 05:55 10.14
102 600 INGHELS JOERI SH 44 0:47:15 05:55 10.13
103 788 WOUTERS MARC FRANS V2 10 0:47:23 05:56 10.10
104 627 VERMEYLEN JOREN SH 45 0:47:26 05:57 10.09
105 622 DHONDT GEERT V1 14 0:47:34 05:58 10.07
106 621 DEJONGH SANDRA A1 7 0:47:35 05:58 10.06
107 638 MELLAERTS EDDY V2 11 0:47:37 05:58 10.06
108 714 DE GROOF CAROLINE SD 20 0:48:01 06:01 9.97
109 599 BEERTEN GUIDO V3 3 0:48:07 06:02 9.95
110 681 DE VEUSTER ILSE A1 8 0:48:21 06:04 9.90
111 695 LAURENS YELTE SD 21 0:48:21 06:04 9.90
112 659 VOLDERS ELISE SD 22 0:48:22 06:04 9.90
113 585 JANSSEN KAREN SD 23 0:48:25 06:04 9.89
114 522 DE CALUWÉ BENNO SH 46 0:48:26 06:04 9.89
115 523 HUNIN ZOÉ SD 24 0:48:27 06:04 9.88
116 796 FEREMANS MARINA ROSA A2 3 0:48:35 06:05 9.86
117 575 PROOST GLENN SH 47 0:48:36 06:05 9.85
118 527 LAUWERS ANTJE SD 25 0:48:50 06:07 9.80
119 691 GYSEN JOHAN V1 15 0:48:50 06:07 9.80
120 541 VANDERMEEREN CAROLINE A1 9 0:48:50 06:07 9.80
121 752 DE SMEDT TOM SH 48 0:48:55 06:08 9.79
122 626 GEYSKENS KATHLEEN SD 26 0:48:56 06:08 9.78
123 604 VANDERSMISSEN MARIEKE A1 10 0:48:57 06:08 9.78
124 614 VERLINDE PETER V1 16 0:48:59 06:08 9.77
125 741 DE VRINDT LUC V2 12 0:49:02 06:09 9.76
126 598 VANDEZANDE TINE SD 27 0:49:04 06:09 9.76
127 535 VERMEIREN AN A1 11 0:49:04 06:09 9.76
128 595 JANSSEN CARLA A2 4 0:49:04 06:09 9.76
129 544 DE KAEY NATHALIE SD 28 0:49:07 06:09 9.75
130 521 DE PRE ANKE SD 29 0:49:12 06:10 9.73
131 703 DE CLERCQ VEERLE SD 30 0:49:16 06:10 9.72
132 634 KRAMER MARTINE A2 5 0:49:44 06:14 9.63
133 525 VERGAELEN MARIJKE SD 31 0:49:49 06:15 9.61
134 771 THIRY HILDE A1 12 0:49:54 06:15 9.60
135 646 DE GREEF LUC V2 13 0:50:04 06:16 9.56
136 501 DE VEILDER SABINE A2 6 0:50:05 06:17 9.56
137 532 POELMANS DORIEN SD 32 0:50:11 06:17 9.54
138 765 WILLEN CINDY A1 13 0:50:13 06:18 9.53
139 792 CLAESSENS SANDRA SD 33 0:50:30 06:20 9.48
140 554 DE BROECK ANNELEEN SD 34 0:50:47 06:22 9.43
141 605 HELEN NIJS A1 14 0:51:01 06:24 9.38
142 735 HERMESZ AGNES SD 35 0:51:03 06:24 9.38
143 799 VAN DEN BROECK WIM V1 17 0:51:04 06:24 9.38
144 731 GILIS ERIK V1 18 0:51:05 06:24 9.37
145 593 CORTEN CARMEN SD 36 0:51:06 06:24 9.37
146 795 CORTEN TSIGANE SD 37 0:51:06 06:24 9.37
147 555 VAN BEERS WANNES SH 49 0:51:13 06:25 9.35
148 748 WILMS ELS A2 7 0:51:27 06:27 9.31
149 631 GALLE LEEN A1 15 0:51:30 06:27 9.30
150 750 DHAEYER MÉLANIE SD 38 0:51:33 06:28 9.29
151 674 DUBOIS NOEL V1 19 0:51:36 06:28 9.28
152 572 POLLET CINDY A1 16 0:51:40 06:28 9.27
153 787 PEETERMANS ELS SD 39 0:51:45 06:29 9.25
154 531 BIELEN ANKE SD 40 0:51:49 06:30 9.24
155 596 VERHOEVEN DORIEN SD 41 0:51:53 06:30 9.23
156 744 VAES CARMEN SD 42 0:51:58 06:31 9.21
157 772 VAN EYNDE PETER V1 20 0:51:58 06:31 9.21
158 637 VAN DER WEEËN SABINE A1 17 0:52:01 06:31 9.20
159 707 DE DECKER NELE SD 43 0:52:02 06:31 9.20
160 708 VAN DEN BRANDE SEAN SH 50 0:52:03 06:31 9.20
161 743 HUYBRECHTS NATHALIE SD 44 0:52:03 06:31 9.20
162 716 VANDEWINKEL KENNY SH 51 0:52:04 06:31 9.20
163 715 VANDEWINKEL JOHNY V1 21 0:52:08 06:32 9.18
164 690 LYSENS KAROLIEN A1 18 0:52:08 06:32 9.18
165 577 STROOBANTS KATIA A1 19 0:52:10 06:32 9.18
166 633 DE BRUYNE MICHAEL SH 52 0:52:11 06:32 9.18
167 632 DE BRUYNE MICHAEL SH 53 0:52:12 06:32 9.17
168 762 VERRECKT KENNY A1 20 0:52:16 06:33 9.16
169 706 SIMONS DANIELA A1 21 0:52:17 06:33 9.16
170 740 TIMMERMANS BENNY V1 22 0:52:20 06:33 9.15
171 719 DAEMS STAN JH 6 0:52:21 06:34 9.15
172 717 DAEMS GUNTHER V1 23 0:52:22 06:34 9.14
173 709 GEYSKENS ESTHER SD 45 0:52:23 06:34 9.14
174 789 CHARLIER ROHALD SH 54 0:52:28 06:34 9.13
175 790 CHARLIER EZRA SD 46 0:52:29 06:35 9.12
176 573 VAN MELLAERT ERWIN V1 24 0:52:34 06:35 9.11
177 687 DE SCHRIJVER ANJA A1 22 0:52:49 06:37 9.07
178 768 SMITS MARC V2 14 0:52:50 06:37 9.06
179 769 DE BRABANDERE ANNEMIE A2 8 0:52:51 06:37 9.06
180 793 KEMPS LEEN SD 47 0:53:03 06:39 9.03
181 524 NEYENS KAREN A1 23 0:53:05 06:39 9.02
182 668 SOMERS HANNE-LOREN SD 48 0:53:09 06:40 9.01
183 635 NR 635 XXX   0:53:16 06:41 8.99
184 700 BACHOT INGRID A2 9 0:53:19 06:41 8.98
185 630 WOUTERS SERINA SD 49 0:53:21 06:41 8.97
186 568 BELLEMANS ELS A2 10 0:53:22 06:41 8.97
187 776 HOORELBEKE DELPHINE SD 50 0:53:30 06:42 8.95
188 672 AERTS INGRID A1 24 0:53:32 06:43 8.94
189 775 KOENDERS BRAM SH 55 0:53:39 06:43 8.92
190 774 KOENDERS FRANKIE V2 15 0:53:40 06:44 8.92
191 786 ESTHER VISSER A1 25 0:53:44 06:44 8.91
192 563 DHEER HEIDI SD 51 0:53:46 06:44 8.90
193 679 WILLEMS VÉRONIQUE A1 26 0:53:46 06:44 8.90
194 542 DANNEELS SOFIE A1 27 0:53:47 06:44 8.90
195 785 COEIMANS KATRIEN SD 52 0:53:50 06:45 8.89
196 675 CUSTERS BART V2 16 0:53:54 06:45 8.88
197 629 GOOSSENS NINA SD 53 0:54:00 06:46 8.87
198 628 DE CONINCK INES SD 54 0:54:01 06:46 8.86
199 726 JANSSENS ULRIKE A1 28 0:54:02 06:46 8.86
200 761 MOENS ELLEN A1 29 0:54:04 06:47 8.86
201 727 SCHUURMANS MARIANNE A1 30 0:54:05 06:47 8.85
202 545 OSSELAER KRISTEL A1 31 0:54:15 06:48 8.83
203 730 DOLHEN INGE A1 32 0:54:18 06:48 8.82
204 696 JURGEN HUYSMANS SH 56 0:54:22 06:49 8.81
205 546 VERDEYEN ELISE SD 55 0:54:23 06:49 8.80
206 617 GODDYN HANNELORE SD 56 0:54:31 06:50 8.78
207 693 DE CUYPER ANNELIES SD 57 0:54:32 06:50 8.78
208 640 VANPAEMEL JONE SD 58 0:54:32 06:50 8.78
209 664 MERTENS VALERIE SD 59 0:54:33 06:50 8.78
210 665 VAN HERCK MAARTEN SH 57 0:54:36 06:51 8.77
211 669 SOMERS JOHAN V3 4 0:54:41 06:51 8.76
212 610 HERBOTS MAUDE A1 33 0:54:45 06:52 8.75
213 623 VAN LAER TINE SD 60 0:54:47 06:52 8.74
214 551 PANNECOUCKE JILL SD 61 0:54:48 06:52 8.74
215 624 NR 624 XXX   0:54:50 06:52 8.73
216 552 GUNST MARLIES SD 62 0:54:51 06:52 8.73
217 539 DUBOIS KYARA JF 2 0:54:57 06:53 8.71
218 625 MARIËN JOKE SD 63 0:54:58 06:53 8.71
219 565 DE SCHAMPHELAERE KRISTINE SD 64 0:55:05 06:54 8.69
220 661 TORFS SANNE SD 65 0:55:15 06:55 8.67
221 680 MICHEL SARAH SD 66 0:55:33 06:58 8.62
222 694 STARCKX HANNE SD 67 0:55:33 06:58 8.62
223 609 BECKAERT JOY SD 68 0:55:34 06:58 8.62
224 797 GEUENS BENEDICTE A1 34 0:55:36 06:58 8.61
225 779 HENDRIKX WENDY A1 35 0:55:36 06:58 8.61
226 547 DE WAELE SOFIE SD 69 0:55:54 07:00 8.57
227 529 VERTONGEN BEA SD 70 0:56:01 07:01 8.55
228 767 SMETS NICKY SD 71 0:56:10 07:02 8.52
229 784 LODTS TIM SH 58 0:56:11 07:02 8.52
230 671 BERGHS FREYA SD 72 0:56:13 07:03 8.52
231 770 MCCUTCHEON KEIR V1 25 0:56:24 07:04 8.49
232 570 CENENS TOM SH 59 0:56:34 07:05 8.46
233 677 DAEMS ANNELIES A1 36 0:56:45 07:07 8.44
234 670 DEWANDELEER JOLIEN SD 73 0:56:50 07:07 8.42
235 537 DIDDEN AN SD 74 0:56:53 07:08 8.42
236 757 VANMEENSEL JOLIEN SD 75 0:57:08 07:10 8.38
237 701 LISEMARIE LINDEMANS SD 76 0:57:13 07:10 8.37
238 564 DEBECKER INGE SD 77 0:57:27 07:12 8.33
239 724 MASSANT FILIP V1 26 0:57:30 07:12 8.33
240 725 GOELEN ANJA A1 37 0:57:34 07:13 8.32
241 783 TAEYMANS SARA SD 78 0:57:39 07:13 8.31
242 615 VAN LANGENDONCK CARINE A1 38 0:58:09 07:17 8.23
243 574 VANDEPUT DAISY SD 79 0:58:33 07:20 8.18
244 689 EGGERMONT PIETER SH 60 0:58:53 07:23 8.13
245 590 MATHY ERIC V1 27 0:58:53 07:23 8.13
246 729 DAEM GEERTRUI SD 80 0:58:58 07:23 8.12
247 571 VAN MELLAERT LENNERT JH 7 0:59:14 07:25 8.08
248 763 MEULEMANS WENDY A1 39 1:00:04 07:32 7.97
249 569 HAESEVOETS EVI SD 81 1:00:05 07:32 7.97
250 536 SMEYERS ELKE SD 82 1:00:19 07:34 7.94
251 662 REHER THOMAS SH 61 1:00:56 07:38 7.86
252 548 VAN DER AERSCHOT NELE SD 83 1:01:22 07:41 7.80
253 648 VAN DER AERSCHOT MARJAN SD 84 1:01:30 07:42 7.79
254 758 VIKTORIEN DONS SD 85 1:01:34 07:43 7.78
255 759 SANNEN LINDA SD 86 1:01:35 07:43 7.77
256 579 PIETERS EVELIEN SD 87 1:02:18 07:48 7.69
257 684 VAN DER WILDT CARL V2 17 1:02:46 07:52 7.63
258 698 VAN DER WILDT DUNJA SD 88 1:02:47 07:52 7.63
259 543 VAN DEN BROECK SABINE A1 40 1:02:48 07:52 7.62
260 550 RIA DE POOTER A2 11 1:03:00 07:54 7.60
261 722 WUYTS GUIDO V2 18 1:03:17 07:56 7.57
262 685 ZUURMOND JOYCE A2 12 1:03:22 07:56 7.56
263 699 KUNST BEA GAC A2 13 1:03:24 07:57 7.55
264 608 VAN DAELE PETRA A2 14 1:04:10 08:02 7.46
265 558 PETITJEAN BERT V1 28 1:05:09 08:10 7.35
266 557 MARIEN NINA JF 3 1:05:10 08:10 7.35
267 601 NR 601 XXX   1:05:21 08:11 7.33
268 506 DE WOLF KRISTINE A1 41 1:05:30 08:12 7.31
269 507 VAN CRAEN CARINE A2 15 1:05:31 08:13 7.31
270 504 HUYGHE SARAH SD 89 1:05:32 08:13 7.31
271 749 ROMMES ALEXANDRA SD 90 1:06:14 08:18 7.23
272 798 VANDEPERRE LIEVE SD 91 1:06:27 08:20 7.21
273 721 THEUVENET ANASTATIA A2 16 1:06:57 08:23 7.15
274 732 HERBOSCH ERIK V2 19 1:06:57 08:23 7.15
275 702 COCKX ANN A1 42 1:07:09 08:25 7.13
276 509 VAN ROYEN CARINE A2 17 1:08:08 08:32 7.03
277 764 DUBOIS KEANU JH 8 1:08:30 08:35 6.99
278 505 VANGHELUWE MARIA A3 1 1:08:54 08:38 6.95
279 510 VERHOEVEN ANNELIES A1 43 1:08:54 08:38 6.95
280 503 HUYBRECHTS MATTI SH 62 1:08:54 08:38 6.95
281 508 SIMONS CHRISTEL A2 18 1:08:56 08:38 6.95
282 511 VERMEULEN JEANNINE A3 2 1:08:57 08:38 6.94
283 513 DE GREEF LILI SD 92 1:13:13 09:11 6.54
284 581 HOFMANS PAULIEN SD 93 1:13:13 09:11 6.54
285 1167 DAMAN KATRIEN SD 94 1:24:00 10:32 5.70